RH
75 80 78 74 72 76 79 82 84 80 73 54 48 50 50 55 57 50 60 55 58 60
76 71 69 69 72 78 81 71 72 64 53 46 44 43 44 50 46 48 54 58 59 61
70 68 72 75 78 78 73 64 62 53 46 43 42 40 42 47 43 46 55 53 56 54
72 72 72 76 74 70 62 56 51 44 41 39 38 36 39 40 41 43 48 52 57 58
74 72 68 67 61 54 49 42 38 37 36 34 34 35 37 38 38 45 51 52 57 59
70 68 62 54 45 39 37 36 33 31 30 29 31 33 34 41 46 50 52 52 52 51
64 60 53 45 40 37 36 35 34 32 31 32 32 35 43 50 51 50 49 53 54 54
56 48 44 42 40 39 38 36 34 33 33 34 36 43 57 57 60 60 56 53 48 48
50 46 46 44 43 44 41 38 36 36 43 52 41 57 52 57 68 65 59 57 53 55
48 48 46 42 42 42 39 41 51 53 45 45 46 54 47 53 66 69 68 66 66 61
50 47 45 43 42 50 55 54 49 48 45 47 42 50 51 57 71 72 69 68 66 66
49 47 51 59 59 52 52 50 49 46 48 49 51 50 50 61 78 76 74 64 67 63
54 59 58 54 52 48 46 48 50 48 52 53 52 50 51 61 76 84 75 72 64 64
53 50 48 48 48 49 49 51 55 54 53 51 54 61 54 59 68 74 58 64 72 65
Wind_Speed
7 5 4 5 4 4 4 4 5 4 4 5 5 3 3 2 2 2 1 1 1 1
7 6 6 6 5 4 5 4 5 5 5 4 4 3 3 2 1 2 1 2 3 2
7 7 6 6 6 6 6 5 6 5 5 4 4 3 3 0 1 1 2 3 4 4
7 7 6 6 6 6 6 6 5 5 4 4 3 3 2 2 3 2 4 4 5 7
7 7 6 6 6 6 6 5 6 5 4 4 3 2 2 3 3 3 5 6 6 7
7 7 7 7 6 6 7 6 5 4 3 2 1 1 3 2 3 5 5 6 6 7
7 7 7 7 7 6 6 6 4 4 3 2 2 2 3 5 6 6 6 7 7 7
7 7 7 7 7 6 6 5 4 3 0 1 1 2 4 5 5 6 7 7 7 7
7 7 7 7 7 6 5 4 2 1 2 4 3 6 6 7 5 6 7 8 7 6
7 7 7 7 6 6 5 3 2 5 6 5 5 7 8 10 4 6 6 7 6 7
7 7 6 7 6 5 3 4 4 4 5 4 4 9 10 11 5 6 7 7 7 6
7 7 7 7 6 4 5 4 3 3 5 4 5 8 8 8 5 5 7 6 7 10
7 7 7 6 5 3 2 2 3 4 4 7 5 6 8 8 2 5 5 6 7 14
7 7 6 5 2 2 3 4 4 5 5 5 5 4 9 12 5 4 9 8 7 7
Wind_Direction
127 130 119 130 140 143 156 152 135 127 117 108 117 116 108 113 108 93 95 38 345 282
117 121 121 118 113 111 103 113 115 120 114 119 117 120 118 92 106 116 158 251 264 259
132 122 123 116 115 120 111 106 124 126 131 129 126 127 108 104 205 154 292 252 259 268
118 114 117 119 126 119 122 129 130 132 126 133 139 144 163 246 238 251 274 288 276 279
116 122 124 122 123 130 130 123 130 127 130 134 147 193 219 253 294 284 291 287 291 282
125 126 123 116 111 103 111 107 84 96 101 95 103 1 322 322 321 317 305 297 292 284
129 127 115 113 110 101 103 105 109 92 79 57 354 329 342 27 359 333 313 301 296 291
108 102 103 101 96 92 89 90 84 74 219 253 294 48 43 12 335 316 309 303 298 297
101 102 105 103 105 108 96 97 102 128 53 27 18 59 24 2 335 315 301 298 295 306
106 102 104 109 106 94 95 92 62 42 41 16 358 349 351 345 325 297 289 297 302 302
101 105 103 95 93 80 80 72 51 33 17 0 332 356 349 345 335 318 304 305 302 308
107 107 97 87 86 70 55 38 25 8 354 339 315 326 350 357 340 317 315 317 336 331
95 91 89 95 80 58 64 50 7 336 308 288 298 322 345 346 303 302 297 305 310 316
80 91 91 88 93 75 31 18 349 326 327 341 339 348 350 343 333 304 322 323 320 313